******** Week 354 almanac for PRN-1 ******** ID: 1 Health: 0 Eccentricity: 0.001398086548 Time of Applicability(s): 319488 Orbital Inclination(rad): 0.9584467758 Rate of Right Ascen(r/s): -7.794610391e-09 SQRT(A) (m 1/2): 5153.586914 Right Ascen at Week(rad): -2.395219247 Argument of Perigee(rad): -0.009054456427 Mean Anom(rad): -0.8142625439 Af0(s): 0.0002698154053 Af1(s/s): -3.637979e-12 week: 354 ******** Week 354 almanac for PRN-2 ******** ID: 2 Health: 0 Eccentricity: 0.01697826385 Time of Applicability(s): 319488 Orbital Inclination(rad): 0.9639535271 Rate of Right Ascen(r/s): -7.680319916e-09 SQRT(A) (m 1/2): 5153.566406 Right Ascen at Week(rad): -2.557907722 Argument of Perigee(rad): -0.8445062335 Mean Anom(rad): 0.5787661578 Af0(s): 1.733450928e-05 Af1(s/s): 7.275958e-12 week: 354 ******** Week 354 almanac for PRN-3 ******** ID: 3 Health: 0 Eccentricity: 0.006361484528 Time of Applicability(s): 319488 Orbital Inclination(rad): 0.9925418956 Rate of Right Ascen(r/s): -7.931758961e-09 SQRT(A) (m 1/2): 5153.599609 Right Ascen at Week(rad): -1.409134377 Argument of Perigee(rad): 1.209527373 Mean Anom(rad): -3.04385456 Af0(s): 0.0004680317505 Af1(s/s): -1.091394e-11 week: 354 ******** Week 354 almanac for PRN-4 ******** ID: 4 Health: 0 Eccentricity: 0.003734111786 Time of Applicability(s): 319488 Orbital Inclination(rad): 0.9705268745 Rate of Right Ascen(r/s): -7.977475151e-09 SQRT(A) (m 1/2): 5153.700195 Right Ascen at Week(rad): -0.3378087102 Argument of Perigee(rad): -2.907108561 Mean Anom(rad): 0.003211023262 Af0(s): 3.090064697e-05 Af1(s/s): 3.637979e-12 week: 354 ******** Week 354 almanac for PRN-5 ******** ID: 5 Health: 0 Eccentricity: 0.005375385284 Time of Applicability(s): 319488 Orbital Inclination(rad): 0.9791315479 Rate of Right Ascen(r/s): -8.034620388e-09 SQRT(A) (m 1/2): 5153.631836 Right Ascen at Week(rad): -1.468385133 Argument of Perigee(rad): 1.4248045 Mean Anom(rad): 0.61762276 Af0(s): -0.0001801281616 Af1(s/s): 0 week: 354 ******** Week 354 almanac for PRN-6 ******** ID: 6 Health: 0 Eccentricity: 0.003867149353 Time of Applicability(s): 319488 Orbital Inclination(rad): 0.9874066552 Rate of Right Ascen(r/s): -7.497455156e-09 SQRT(A) (m 1/2): 5153.572754 Right Ascen at Week(rad): -2.445817768 Argument of Perigee(rad): -0.6190623651 Mean Anom(rad): -1.667376072 Af0(s): -0.0004778295166 Af1(s/s): -3.637979e-12 week: 354 ******** Week 354 almanac for PRN-7 ******** ID: 7 Health: 0 Eccentricity: 0.02021551132 Time of Applicability(s): 319488 Orbital Inclination(rad): 0.9510045721 Rate of Right Ascen(r/s): -7.737465153e-09 SQRT(A) (m 1/2): 5153.592773 Right Ascen at Week(rad): 0.6707132509 Argument of Perigee(rad): -2.003822326 Mean Anom(rad): -2.574065827 Af0(s): -0.0001092827759 Af1(s/s): -3.637979e-12 week: 354 ******** Week 354 almanac for PRN-8 ******** ID: 8 Health: 0 Eccentricity: 0.01144266129 Time of Applicability(s): 319488 Orbital Inclination(rad): 0.9442454693 Rate of Right Ascen(r/s): -8.137481816e-09 SQRT(A) (m 1/2): 5153.609863 Right Ascen at Week(rad): 2.71923374 Argument of Perigee(rad): 0.5044920514 Mean Anom(rad): 0.2741601172 Af0(s): 0.0003964326904 Af1(s/s): -3.637979e-12 week: 354 ******** Week 354 almanac for PRN-9 ******** ID: 9 Health: 0 Eccentricity: 0.003358840942 Time of Applicability(s): 319488 Orbital Inclination(rad): 0.9646246437 Rate of Right Ascen(r/s): -8.091765626e-09 SQRT(A) (m 1/2): 5153.524902 Right Ascen at Week(rad): -0.4017494187 Argument of Perigee(rad): 2.070533263 Mean Anom(rad): 0.8560429225 Af0(s): 0.0006089688477 Af1(s/s): 0 week: 354 ******** Week 354 almanac for PRN-10 ******** ID: 10 Health: 0 Eccentricity: 0.01096534729 Time of Applicability(s): 319488 Orbital Inclination(rad): 0.9920984793 Rate of Right Ascen(r/s): -7.908900866e-09 SQRT(A) (m 1/2): 5153.601562 Right Ascen at Week(rad): -1.411643199 Argument of Perigee(rad): -2.264747739 Mean Anom(rad): 2.268812639 Af0(s): -0.0004612486816 Af1(s/s): -3.637979e-12 week: 354 ******** Week 354 almanac for PRN-11 ******** ID: 11 Health: 0 Eccentricity: 0.002238273621 Time of Applicability(s): 319488 Orbital Inclination(rad): 0.9642471406 Rate of Right Ascen(r/s): -7.737465153e-09 SQRT(A) (m 1/2): 5153.73584 Right Ascen at Week(rad): -2.42614042 Argument of Perigee(rad): -2.248197899 Mean Anom(rad): -0.7062168917 Af0(s): -0.0003685467407 Af1(s/s): 1.455192e-11 week: 354 ******** Week 354 almanac for PRN-12 ******** ID: 12 Health: 0 Eccentricity: 0.009079456329 Time of Applicability(s): 319488 Orbital Inclination(rad): 0.9587883262 Rate of Right Ascen(r/s): -8.057478483e-09 SQRT(A) (m 1/2): 5153.500977 Right Ascen at Week(rad): 1.788599129 Argument of Perigee(rad): 1.537336746 Mean Anom(rad): 3.09214387 Af0(s): -0.0004793368652 Af1(s/s): 0 week: 354 ******** Week 354 almanac for PRN-13 ******** ID: 13 Health: 0 Eccentricity: 0.009910106659 Time of Applicability(s): 319488 Orbital Inclination(rad): 0.9762493419 Rate of Right Ascen(r/s): -7.863184676e-09 SQRT(A) (m 1/2): 5153.626953 Right Ascen at Week(rad): -0.2272531119 Argument of Perigee(rad): 1.00196322 Mean Anom(rad): 0.00275749525 Af0(s): 0.0005449065308 Af1(s/s): 0 week: 354 ******** Week 354 almanac for PRN-14 ******** ID: 14 Health: 0 Eccentricity: 0.006532669067 Time of Applicability(s): 319488 Orbital Inclination(rad): 0.9421302536 Rate of Right Ascen(r/s): -8.217485148e-09 SQRT(A) (m 1/2): 5153.583496 Right Ascen at Week(rad): 1.734583606 Argument of Perigee(rad): -2.763195247 Mean Anom(rad): 2.896314894 Af0(s): 0.0005773145264 Af1(s/s): 3.637979e-12 week: 354 ******** Week 354 almanac for PRN-15 ******** ID: 15 Health: 0 Eccentricity: 0.01659965515 Time of Applicability(s): 319488 Orbital Inclination(rad): 0.9423759302 Rate of Right Ascen(r/s): -8.377491813e-09 SQRT(A) (m 1/2): 5153.621094 Right Ascen at Week(rad): -0.544780394 Argument of Perigee(rad): 1.494993483 Mean Anom(rad): -0.7331611744 Af0(s): 0.0002992087036 Af1(s/s): 3.637979e-12 week: 354 ******** Week 354 almanac for PRN-16 ******** ID: 16 Health: 0 Eccentricity: 0.01504707336 Time of Applicability(s): 319488 Orbital Inclination(rad): 0.9579494304 Rate of Right Ascen(r/s): -8.068907531e-09 SQRT(A) (m 1/2): 5153.566406 Right Ascen at Week(rad): 1.805650809 Argument of Perigee(rad): 0.9234905148 Mean Anom(rad): 1.275621123 Af0(s): 0.0001522422119 Af1(s/s): 7.275958e-12 week: 354 ******** Week 354 almanac for PRN-17 ******** ID: 17 Health: 0 Eccentricity: 0.01279497147 Time of Applicability(s): 319488 Orbital Inclination(rad): 0.9600227013 Rate of Right Ascen(r/s): -7.954617056e-09 SQRT(A) (m 1/2): 5153.513184 Right Ascen at Week(rad): 2.82326992 Argument of Perigee(rad): -1.133485594 Mean Anom(rad): 0.167871652 Af0(s): -3.090064697e-05 Af1(s/s): -1.091394e-11 week: 354 ******** Week 354 almanac for PRN-18 ******** ID: 18 Health: 0 Eccentricity: 0.005700111389 Time of Applicability(s): 319488 Orbital Inclination(rad): 0.9723604609 Rate of Right Ascen(r/s): -7.634603726e-09 SQRT(A) (m 1/2): 5153.604004 Right Ascen at Week(rad): -2.450284888 Argument of Perigee(rad): -2.856649731 Mean Anom(rad): -1.815391736 Af0(s): -0.0003519659058 Af1(s/s): 1.091394e-11 week: 354 ******** Week 354 almanac for PRN-19 ******** ID: 19 Health: 0 Eccentricity: 0.01098918915 Time of Applicability(s): 319488 Orbital Inclination(rad): 0.9592377346 Rate of Right Ascen(r/s): -7.920329913e-09 SQRT(A) (m 1/2): 5153.654297 Right Ascen at Week(rad): 2.867168885 Argument of Perigee(rad): 2.917314627 Mean Anom(rad): 2.02601374 Af0(s): 0.0005426455078 Af1(s/s): 0 week: 354 ******** Week 354 almanac for PRN-21 ******** ID: 21 Health: 0 Eccentricity: 0.0005779266357 Time of Applicability(s): 319488 Orbital Inclination(rad): 0.96197613 Rate of Right Ascen(r/s): -8.228914196e-09 SQRT(A) (m 1/2): 5153.687988 Right Ascen at Week(rad): -1.401674571 Argument of Perigee(rad): -0.4605234282 Mean Anom(rad): 2.915499391 Af0(s): 0.0003037307495 Af1(s/s): 7.275958e-12 week: 354 ******** Week 354 almanac for PRN-22 ******** ID: 22 Health: 0 Eccentricity: 0.01220464706 Time of Applicability(s): 319488 Orbital Inclination(rad): 0.9573861719 Rate of Right Ascen(r/s): -8.091765626e-09 SQRT(A) (m 1/2): 5153.567383 Right Ascen at Week(rad): 1.808994033 Argument of Perigee(rad): -0.9972927424 Mean Anom(rad): 0.8208845772 Af0(s): -4.446678467e-05 Af1(s/s): 3.637979e-12 week: 354 ******** Week 354 almanac for PRN-23 ******** ID: 23 Health: 0 Eccentricity: 0.005997180939 Time of Applicability(s): 319488 Orbital Inclination(rad): 0.9870950654 Rate of Right Ascen(r/s): -7.966046103e-09 SQRT(A) (m 1/2): 5153.649902 Right Ascen at Week(rad): -1.443556816 Argument of Perigee(rad): -2.746948384 Mean Anom(rad): -2.916080626 Af0(s): 0.000476322168 Af1(s/s): 3.637979e-12 week: 354 ******** Week 354 almanac for PRN-24 ******** ID: 24 Health: 0 Eccentricity: 0.01782894135 Time of Applicability(s): 319488 Orbital Inclination(rad): 0.9350775372 Rate of Right Ascen(r/s): -7.908900866e-09 SQRT(A) (m 1/2): 5153.605469 Right Ascen at Week(rad): 0.562952973 Argument of Perigee(rad): 1.130395536 Mean Anom(rad): -1.593843115 Af0(s): -0.0001213415649 Af1(s/s): 1.455192e-11 week: 354 ******** Week 354 almanac for PRN-25 ******** ID: 25 Health: 0 Eccentricity: 0.01294088364 Time of Applicability(s): 319488 Orbital Inclination(rad): 0.947109699 Rate of Right Ascen(r/s): -8.171768958e-09 SQRT(A) (m 1/2): 5153.678711 Right Ascen at Week(rad): 1.695184343 Argument of Perigee(rad): 1.151873514 Mean Anom(rad): 2.937145148 Af0(s): 0.0003542269287 Af1(s/s): -3.637979e-12 week: 354 ******** Week 354 almanac for PRN-26 ******** ID: 26 Health: 0 Eccentricity: 0.01096773148 Time of Applicability(s): 319488 Orbital Inclination(rad): 0.9278929944 Rate of Right Ascen(r/s): -8.320346576e-09 SQRT(A) (m 1/2): 5153.630859 Right Ascen at Week(rad): 1.621372004 Argument of Perigee(rad): 0.7031526752 Mean Anom(rad): 2.108294807 Af0(s): -0.0002487125244 Af1(s/s): -7.275958e-12 week: 354 ******** Week 354 almanac for PRN-27 ******** ID: 27 Health: 0 Eccentricity: 0.01420068741 Time of Applicability(s): 319488 Orbital Inclination(rad): 0.9533654644 Rate of Right Ascen(r/s): -8.011762293e-09 SQRT(A) (m 1/2): 5153.606934 Right Ascen at Week(rad): 2.750898684 Argument of Perigee(rad): 0.8680683432 Mean Anom(rad): 0.3656469412 Af0(s): -1.808818359e-05 Af1(s/s): -7.275958e-12 week: 354 ******** Week 354 almanac for PRN-28 ******** ID: 28 Health: 0 Eccentricity: 0.0003986358643 Time of Applicability(s): 319488 Orbital Inclination(rad): 0.9619881142 Rate of Right Ascen(r/s): -7.668890868e-09 SQRT(A) (m 1/2): 5153.726074 Right Ascen at Week(rad): 0.6445239744 Argument of Perigee(rad): 0.3295579459 Mean Anom(rad): -2.537140558 Af0(s): -0.0004808442139 Af1(s/s): 7.275958e-12 week: 354 ******** Week 354 almanac for PRN-29 ******** ID: 29 Health: 0 Eccentricity: 0.003265380859 Time of Applicability(s): 319488 Orbital Inclination(rad): 0.9626652229 Rate of Right Ascen(r/s): -7.943188008e-09 SQRT(A) (m 1/2): 5153.727051 Right Ascen at Week(rad): 2.839866948 Argument of Perigee(rad): 2.749304407 Mean Anom(rad): 0.2412252201 Af0(s): -0.0003074991211 Af1(s/s): 7.275958e-12 week: 354 ******** Week 354 almanac for PRN-30 ******** ID: 30 Health: 0 Eccentricity: 0.007901191711 Time of Applicability(s): 319488 Orbital Inclination(rad): 0.9362699676 Rate of Right Ascen(r/s): -7.908900866e-09 SQRT(A) (m 1/2): 5153.731934 Right Ascen at Week(rad): 0.6622958309 Argument of Perigee(rad): -2.345358879 Mean Anom(rad): -2.687255334 Af0(s): 7.536743164e-05 Af1(s/s): 1.091394e-11 week: 354 ******** Week 354 almanac for PRN-31 ******** ID: 31 Health: 0 Eccentricity: 0.01085805893 Time of Applicability(s): 319488 Orbital Inclination(rad): 0.9547616266 Rate of Right Ascen(r/s): -7.726036106e-09 SQRT(A) (m 1/2): 5153.719727 Right Ascen at Week(rad): 0.6947569766 Argument of Perigee(rad): 0.9323071593 Mean Anom(rad): 2.63856942 Af0(s): -0.000135661377 Af1(s/s): 3.637979e-12 week: 354 ******** Week 354 almanac for PRN-32 ******** ID: 32 Health: 0 Eccentricity: 0.009211540222 Time of Applicability(s): 319488 Orbital Inclination(rad): 0.9677105816 Rate of Right Ascen(r/s): -8.011762293e-09 SQRT(A) (m 1/2): 5153.666504 Right Ascen at Week(rad): -0.3848898613 Argument of Perigee(rad): -2.023811639 Mean Anom(rad): 0.9730913492 Af0(s): -0.0001205878906 Af1(s/s): 1.818989e-11 week: 354